Temp
40 39 38 37 37 37 35 34 34 33 32 32 33 35 35 35 36 35 34 34 33 32 32 31 30 31 30 30 30 29 29 28 24 26 28 29 29 29 30 29 29 29 28
38 37 36 36 36 34 33 32 33 32 32 32 34 34 35 35 35 34 33 32 31 30 30 30 29 34 30 29 28 28 28 28 26 24 26 26 27 27 26 25 28 30 27
36 35 34 33 33 33 32 32 32 32 32 33 34 34 34 34 33 33 32 31 30 29 30 29 29 29 28 27 27 26 26 29 26 25 25 26 24 26 24 24 25 24 26
35 35 34 33 32 32 32 32 31 31 33 34 34 34 33 33 32 32 32 30 30 29 30 29 28 27 26 26 26 25 26 25 25 24 24 23 22 24 22 19 18 21 20
34 34 32 32 32 31 30 30 32 33 33 33 33 33 33 33 34 31 31 30 29 28 29 30 28 28 30 29 28 25 24 24 23 22 21 20 20 19 17 18 16 16 16
33 32 32 31 30 29 31 32 32 32 32 32 31 31 30 33 36 36 32 30 30 30 29 29 29 29 29 31 31 31 31 24 22 21 19 17 17 17 17 15 14 10 6
33 32 30 29 29 32 32 32 32 31 32 31 31 31 30 30 34 34 33 30 30 29 29 29 29 30 28 27 28 30 28 29 28 24 19 17 16 17 17 14 11 10 8
30 29 29 29 31 31 31 31 30 31 30 30 30 30 30 32 34 33 32 30 29 29 28 28 27 26 27 27 26 26 25 24 24 25 21 20 20 20 18 15 12 8 7
28 29 31 31 30 30 30 29 29 29 29 29 30 29 28 28 33 33 31 29 30 28 29 27 26 25 28 29 23 21 21 21 25 26 25 24 23 22 20 14 -4 -3 -0
31 30 31 31 30 29 29 29 29 29 30 30 30 27 28 27 32 32 30 30 27 28 27 29 28 27 28 28 22 18 14 17 18 14 14 14 16 15 18 13 8 -7 0
31 30 30 30 29 29 28 28 28 28 28 27 27 26 26 26 27 30 30 28 27 25 25 25 26 27 26 26 26 17 17 21 13 9 9 9 10 10 9 10 9 6 0
30 29 27 27 29 28 26 27 27 26 24 24 23 23 23 25 27 29 29 29 29 24 24 23 22 25 25 25 23 22 22 15 6 3 4 4 5 6 6 5 6 6 6
28 26 26 27 27 28 26 25 24 24 22 22 22 19 19 22 22 28 28 28 28 24 23 23 23 23 22 18 19 20 11 3 -0 -5 -1 2 4 5 5 2 2 4 5
26 25 25 24 24 24 25 25 23 20 19 21 20 18 16 18 19 21 22 20 23 20 19 15 19 21 20 19 11 12 8 3 2 -1 -1 2 3 0 1 3 1 2 0
24 23 23 23 22 21 23 21 20 21 22 17 15 16 12 11 19 25 22 17 12 17 7 2 3 4 3 4 2 -0 -0 -0 -1 -2 -2 -2 -1 -1 -0 2 0 -1 -4
23 23 23 22 20 20 19 18 29 28 29 28 27 21 18 24 25 25 24 24 24 22 -1 -4 -1 1 1 -0 -2 -2 -3 -4 -3 -6 -10 -4 -5 -3 -3 -2 -1 -4 -5
22 19 20 20 19 18 17 17 16 24 27 26 25 24 24 23 24 23 23 22 20 13 -6 -7 -5 -5 -3 -2 -4 -4 -3 -4 -10 -8 -8 -5 -4 -4 -5 -5 -5 -5 -6
20 18 17 16 16 15 15 15 14 12 6 7 18 18 20 21 21 20 19 12 -4 -1 -8 -9 -10 -8 -7 -7 -6 -8 -8 -6 -9 -6 -8 -8 -12 -8 -9 -8 -7 -8 -8
18 16 15 14 14 14 15 14 12 11 7 2 1 10 8 18 19 18 17 -7 -10 -12 -11 -11 -10 -8 -7 -8 -8 -8 -9 -7 -8 -11 -8 -10 -10 -14 -10 -8 -8 -8 -8
14 15 13 13 13 13 12 10 8 5 1 -1 -4 -3 -4 -2 -6 -8 -8 -10 -12 -9 -7 -9 -8 -9 -9 -10 -9 -10 -9 -10 -10 -11 -9 -8 -8 -13 -9 -9 -9 -10 -10
12 13 12 13 11 9 7 6 2 -2 -4 -6 -5 -2 16 -6 -10 -11 -9 -9 -9 -8 -7 -8 -7 -9 -8 -8 -9 -9 -8 -7 -7 -8 -8 -8 -9 -13 -9 -9 -9 -10 -9
12 11 10 9 7 7 3 0 -3 -5 -7 -7 -7 -5 14 -9 -11 -7 -8 -7 -7 -8 -7 -8 -5 -4 -5 -6 -7 -8 -8 -7 -7 -8 -9 -8 -9 -11 -10 -10 -11 -10 -8
11 10 7 2 3 2 -2 -7 -7 -8 -9 -9 -9 -9 -11 -12 -12 -10 -6 -4 -5 -3 -3 -9 -5 -4 -3 -5 -5 -6 -7 -7 -6 -8 -10 -9 -9 -9 -11 -12 -12 -11 -10
8 7 6 0 -2 -5 -7 -9 -10 -8 -11 -11 -12 -12 -12 -12 -9 -6 -4 -2 -3 -3 -2 -4 -4 -5 -4 -4 -5 -6 -6 -5 -5 -7 -12 -10 -11 -11 -12 -13 -12 -11 -10
6 4 1 -3 -6 -9 -9 -9 -9 -10 -11 -11 -12 -13 -13 -9 -7 -6 -4 -3 -3 -2 -3 -3 -3 -4 -6 -7 -7 -6 -5 -4 -6 -5 -6 -14 -13 -14 -13 -12 -12 -11 -11
3 0 -3 -5 -8 -9 -9 -9 -10 -11 -11 -11 -12 -11 -8 -6 -3 -2 -2 -3 -2 -2 -2 -1 -2 -6 -7 -5 -5 -4 -3 1 -0 -2 -6 -9 -10 -10 -10 -11 -11 -11 -10
MSLP
1011.88 1013.75 1015.15 1016.58 1017.88 1018.90 1020.78 1021.61 1022.88 1023.66 1024.35 1025.05 1025.26 1026.10 1026.62 1027.40 1027.51 1027.62 1028.28 1028.83 1028.88 1029.08 1029.70 1030.31 1030.66 1030.81 1031.06 1031.20 1031.13 1031.22 1031.52 1031.52 1031.66 1031.26 1030.92 1030.58 1030.39 1030.34 1030.15 1030.04 1029.85 1029.92 1030.05
1012.53 1014.34 1015.63 1017.16 1018.22 1019.17 1021.02 1022.62 1023.31 1024.33 1024.21 1025.38 1026.03 1026.53 1026.77 1027.17 1027.62 1028.16 1028.62 1029.17 1029.46 1029.62 1030.10 1030.53 1030.85 1031.04 1031.30 1031.45 1031.42 1031.61 1031.68 1031.69 1031.63 1031.24 1030.79 1030.46 1030.44 1030.46 1030.31 1030.12 1030.15 1030.17 1030.19
1013.29 1014.52 1016.23 1017.28 1018.70 1020.69 1021.47 1022.15 1023.68 1024.30 1025.55 1025.82 1026.43 1027.05 1027.21 1027.82 1028.33 1028.82 1028.94 1029.41 1029.78 1030.18 1030.45 1030.82 1031.32 1031.46 1031.55 1031.81 1031.86 1032.02 1031.95 1031.90 1031.63 1031.49 1031.02 1030.93 1030.94 1030.91 1030.44 1030.46 1030.67 1030.19 1029.90
1013.89 1015.89 1016.75 1018.09 1019.41 1021.17 1021.75 1022.81 1023.92 1025.46 1025.75 1025.99 1026.97 1027.49 1027.95 1028.34 1028.65 1029.02 1029.42 1029.89 1030.25 1030.77 1030.83 1031.17 1031.42 1031.81 1031.90 1031.90 1031.90 1032.13 1031.87 1031.74 1031.60 1031.50 1031.54 1031.42 1031.43 1031.09 1031.07 1030.84 1030.32 1030.45 1029.57
1014.87 1016.37 1017.75 1019.63 1020.53 1021.64 1022.85 1023.86 1024.64 1025.52 1026.36 1026.86 1027.22 1028.13 1028.35 1028.72 1029.08 1029.60 1029.82 1030.22 1030.71 1030.99 1031.16 1031.31 1031.55 1031.64 1031.74 1031.91 1031.80 1031.79 1031.62 1031.68 1031.62 1031.79 1031.80 1031.80 1031.54 1031.20 1031.50 1031.16 1030.77 1030.07 1030.05
1016.83 1017.61 1018.76 1020.36 1021.30 1022.82 1023.91 1024.49 1025.16 1025.99 1026.83 1027.35 1027.85 1028.51 1028.71 1029.20 1029.47 1029.65 1030.10 1030.64 1030.92 1031.15 1031.23 1031.17 1031.34 1031.52 1031.74 1031.88 1031.70 1031.44 1031.05 1031.59 1031.87 1032.05 1032.13 1031.82 1031.74 1031.94 1031.69 1031.47 1030.81 1030.70 1030.24
1017.94 1018.44 1019.92 1021.06 1022.83 1023.84 1024.35 1024.58 1025.49 1026.60 1027.49 1027.82 1028.20 1028.78 1029.44 1029.60 1029.62 1030.05 1030.36 1030.91 1030.97 1031.03 1031.03 1031.27 1031.31 1031.65 1031.94 1031.88 1031.68 1031.39 1031.50 1031.71 1031.72 1032.10 1031.93 1032.11 1032.13 1032.03 1031.66 1031.14 1031.21 1031.23 1030.97
1019.42 1019.93 1021.30 1022.65 1023.78 1024.21 1025.18 1025.72 1026.68 1027.18 1027.73 1028.24 1028.92 1029.25 1029.42 1029.68 1029.82 1030.21 1030.76 1030.73 1030.85 1030.99 1031.27 1031.37 1031.65 1031.90 1031.78 1031.45 1031.51 1031.59 1032.05 1031.97 1031.99 1031.96 1032.11 1032.25 1032.03 1031.50 1031.43 1031.30 1031.12 1031.14 1030.95
1020.98 1021.95 1022.73 1023.40 1024.04 1025.24 1026.06 1026.58 1027.06 1027.40 1028.02 1028.66 1029.19 1029.54 1029.92 1030.33 1030.44 1030.65 1030.59 1030.60 1030.89 1031.28 1031.43 1031.52 1031.41 1031.81 1031.66 1031.78 1032.01 1032.07 1032.11 1032.08 1032.06 1031.91 1031.77 1031.84 1031.71 1031.40 1031.24 1030.98 1031.47 1031.49 1030.80
1021.93 1022.60 1023.50 1024.35 1025.34 1026.05 1026.44 1027.00 1027.63 1028.01 1028.53 1029.34 1029.89 1030.18 1030.47 1030.90 1030.52 1030.56 1030.65 1030.94 1031.32 1031.49 1031.10 1031.09 1031.44 1031.79 1031.72 1031.73 1032.10 1032.27 1032.16 1032.16 1032.24 1032.26 1032.39 1032.36 1032.06 1031.71 1031.19 1031.35 1031.31 1031.36 1031.12
1022.70 1023.60 1024.26 1025.09 1025.80 1026.40 1026.92 1027.41 1028.09 1028.59 1029.70 1030.17 1030.33 1030.55 1030.74 1030.95 1031.09 1030.97 1031.16 1031.55 1031.34 1031.51 1031.76 1031.60 1031.78 1031.82 1031.97 1032.03 1031.90 1032.56 1032.16 1031.65 1032.56 1032.86 1032.71 1032.32 1031.81 1031.48 1031.41 1031.34 1031.21 1031.14 1030.82
1023.92 1024.58 1025.49 1026.04 1026.52 1027.22 1027.60 1028.18 1029.03 1029.40 1030.15 1030.48 1030.62 1031.09 1031.47 1031.68 1031.46 1031.53 1031.56 1031.28 1031.70 1032.16 1032.20 1032.44 1032.47 1032.10 1032.23 1032.16 1032.12 1032.12 1031.90 1032.68 1033.36 1033.19 1032.87 1032.36 1031.82 1031.50 1031.29 1031.13 1030.84 1030.56 1030.17
1024.53 1025.43 1025.90 1026.59 1027.23 1027.88 1028.36 1028.96 1029.57 1029.89 1030.30 1030.84 1031.07 1031.43 1031.83 1032.11 1032.17 1031.99 1032.06 1032.10 1032.04 1032.05 1032.54 1032.60 1032.84 1032.58 1032.50 1032.91 1032.72 1032.35 1032.98 1033.61 1033.48 1033.58 1033.10 1032.39 1031.85 1031.34 1030.98 1030.67 1030.23 1029.63 1028.99
1025.09 1025.96 1026.59 1027.23 1028.13 1028.85 1029.13 1029.64 1030.00 1030.53 1030.74 1031.03 1031.27 1031.96 1032.62 1032.63 1032.88 1033.11 1032.67 1032.69 1032.75 1032.88 1033.31 1033.76 1033.12 1032.59 1032.68 1032.70 1033.10 1032.97 1033.13 1033.37 1033.27 1033.22 1032.83 1032.16 1031.60 1031.40 1030.81 1030.21 1029.65 1028.99 1028.19
1026.07 1026.96 1027.70 1028.22 1028.99 1029.65 1029.88 1030.16 1030.20 1030.47 1030.57 1031.09 1032.09 1032.43 1032.77 1033.11 1032.96 1032.72 1032.88 1033.31 1033.79 1033.77 1034.02 1034.26 1033.84 1033.67 1033.60 1033.61 1033.69 1033.75 1033.67 1033.49 1033.29 1033.09 1032.71 1032.29 1031.71 1031.10 1030.45 1029.89 1029.44 1028.78 1028.34
1027.12 1027.85 1028.32 1028.91 1029.42 1029.67 1030.02 1030.48 1030.63 1030.72 1031.21 1031.61 1032.03 1032.71 1032.97 1032.83 1033.01 1033.04 1033.26 1033.23 1033.11 1033.03 1034.37 1034.84 1034.75 1034.50 1034.46 1034.24 1034.16 1033.96 1033.71 1033.53 1033.36 1033.06 1032.68 1032.27 1031.63 1030.97 1030.33 1029.68 1029.23 1028.71 1027.78
1027.43 1028.38 1029.15 1029.29 1029.76 1030.15 1030.76 1031.11 1031.37 1031.46 1032.09 1032.55 1032.64 1032.65 1033.02 1033.48 1033.59 1033.66 1033.64 1033.40 1033.32 1033.78 1034.69 1035.33 1035.41 1035.23 1034.74 1034.39 1034.23 1034.06 1033.82 1033.58 1033.46 1032.93 1032.53 1032.04 1031.50 1030.92 1030.29 1029.48 1028.91 1028.27 1027.30
1028.42 1028.75 1029.44 1029.61 1029.85 1030.49 1031.05 1031.64 1032.14 1032.64 1033.10 1033.54 1033.54 1034.01 1034.18 1034.12 1033.93 1033.88 1033.74 1034.16 1034.45 1034.34 1034.89 1035.43 1035.60 1035.01 1034.70 1034.47 1034.14 1033.85 1033.42 1033.20 1032.97 1032.53 1032.07 1031.62 1031.24 1030.89 1030.10 1029.33 1028.71 1027.94 1027.04
1028.90 1029.34 1029.69 1030.20 1030.85 1031.20 1031.60 1032.15 1032.70 1033.40 1034.12 1034.81 1034.90 1034.88 1035.39 1034.45 1034.04 1033.91 1033.94 1035.09 1035.52 1035.62 1035.25 1035.15 1034.95 1034.76 1034.51 1034.18 1033.76 1033.35 1032.94 1032.58 1032.24 1031.85 1031.45 1030.99 1030.55 1030.33 1029.64 1028.91 1028.15 1027.47 1026.78
1029.43 1029.95 1030.52 1031.16 1031.44 1031.83 1032.37 1033.07 1033.86 1034.67 1035.38 1035.98 1036.21 1035.77 1035.93 1035.42 1035.33 1035.58 1035.39 1035.45 1035.49 1035.34 1035.09 1034.86 1034.63 1034.50 1034.16 1033.74 1033.24 1032.76 1032.34 1031.89 1031.47 1031.00 1030.48 1030.04 1029.63 1029.36 1028.85 1028.28 1027.63 1026.90 1026.14
1030.44 1030.92 1031.36 1031.68 1032.04 1032.48 1033.25 1034.15 1034.73 1035.53 1036.29 1036.41 1035.90 1035.32 1034.66 1035.35 1035.90 1035.97 1035.82 1035.67 1035.54 1035.15 1034.74 1034.50 1034.21 1033.90 1033.38 1032.92 1032.59 1032.01 1031.49 1030.84 1030.32 1029.85 1029.48 1029.00 1028.69 1028.49 1027.94 1027.36 1026.78 1026.22 1025.39
1031.02 1031.51 1031.95 1032.48 1032.87 1033.45 1034.10 1034.51 1035.20 1035.83 1036.29 1036.74 1036.12 1035.53 1034.52 1035.60 1035.83 1035.73 1035.48 1035.24 1034.95 1034.59 1034.02 1033.78 1033.20 1032.64 1032.28 1031.92 1031.41 1030.93 1030.40 1029.67 1029.05 1028.73 1028.45 1028.14 1027.84 1027.40 1026.91 1026.45 1025.90 1025.30 1024.59
1031.71 1032.21 1032.58 1033.22 1033.71 1034.26 1034.85 1035.29 1035.76 1036.24 1036.47 1036.44 1036.31 1036.08 1035.95 1035.74 1035.68 1035.45 1034.95 1034.34 1034.02 1033.40 1032.89 1032.91 1032.39 1031.72 1031.16 1030.67 1030.19 1029.82 1029.37 1028.47 1027.85 1027.72 1027.54 1027.27 1026.80 1026.18 1025.93 1025.52 1025.12 1024.59 1023.82
1032.21 1032.70 1033.27 1034.05 1034.62 1035.13 1035.65 1036.00 1036.17 1036.34 1036.55 1036.59 1036.45 1036.23 1035.95 1035.68 1035.39 1035.02 1034.47 1033.73 1033.21 1032.64 1032.08 1031.76 1031.35 1030.77 1030.11 1029.53 1028.99 1028.56 1028.06 1027.40 1027.01 1026.68 1026.66 1026.33 1025.68 1025.18 1024.94 1024.69 1024.34 1023.76 1022.92
1032.78 1033.38 1034.10 1034.66 1035.17 1035.62 1035.88 1036.04 1036.29 1036.47 1036.55 1036.46 1036.20 1035.94 1035.53 1035.23 1034.85 1034.33 1033.55 1032.92 1032.38 1031.88 1031.27 1030.84 1030.31 1029.65 1029.14 1028.53 1027.94 1027.29 1026.69 1026.35 1026.13 1025.74 1025.49 1025.41 1024.76 1024.29 1024.02 1023.72 1023.23 1022.69 1022.02
1033.00 1033.66 1034.34 1034.80 1035.21 1035.60 1036.00 1036.33 1036.60 1036.62 1036.52 1036.22 1035.93 1035.61 1035.24 1034.70 1034.02 1033.37 1032.72 1032.21 1031.69 1031.06 1030.48 1029.80 1029.07 1028.54 1027.97 1027.30 1026.62 1026.03 1025.45 1024.89 1024.27 1023.65 1023.47 1023.39 1023.22 1022.82 1022.66 1022.45 1021.96 1021.47 1020.68
Wind_Speed
19 18 18 16 17 17 14 13 12 12 10 10 11 10 9 6 7 8 8 6 8 7 6 7 6 6 4 3 3 2 2 1 3 3 3 4 4 5 5 5 6 7 6
20 19 19 18 19 18 16 12 12 11 11 11 9 9 8 8 6 6 7 6 7 7 6 6 5 4 4 4 3 4 3 3 2 7 4 3 3 5 5 6 6 7 8
19 21 19 18 18 16 15 15 11 12 10 10 8 8 8 7 7 6 7 7 7 6 6 6 5 4 4 4 4 4 4 4 4 5 7 3 3 7 5 5 8 7 8
20 18 20 19 17 14 14 14 13 9 10 10 8 8 7 7 7 6 7 6 6 6 5 5 5 5 5 4 4 4 4 4 4 5 5 6 6 6 5 7 8 7 8
20 20 19 16 15 14 14 12 11 11 9 9 9 7 7 7 5 6 6 6 5 5 5 4 4 4 4 3 3 2 3 3 5 4 5 6 6 7 8 7 9 9 8
18 19 18 16 16 14 12 12 12 11 9 8 8 7 8 6 12 11 8 5 4 4 4 3 4 3 2 6 9 11 10 5 4 5 5 6 7 8 7 8 9 9 7
17 17 15 16 14 12 12 12 12 10 8 8 8 8 8 6 13 11 9 3 3 4 4 3 3 2 2 3 8 12 4 7 8 7 6 6 9 9 9 10 9 8 8
14 16 15 13 12 12 11 11 9 8 8 7 7 7 7 5 9 7 5 2 3 5 4 3 2 3 4 5 7 3 2 3 5 5 4 7 8 9 8 8 9 8 7
14 14 12 12 13 11 11 9 8 9 8 7 6 6 7 5 7 5 4 4 4 2 2 1 3 3 7 10 5 4 5 6 9 13 15 18 17 17 14 5 3 4 8
12 13 11 11 11 10 10 9 6 8 8 6 7 6 8 5 7 8 6 2 1 1 3 2 2 3 6 6 4 3 4 7 7 6 6 8 10 9 14 5 4 2 6
12 12 11 10 10 9 9 8 8 8 7 6 7 6 7 6 5 7 6 3 4 4 3 2 3 3 6 10 12 2 7 10 9 5 6 6 6 4 3 3 4 5 7
12 12 11 9 8 8 9 8 7 7 6 5 6 5 4 4 7 7 8 8 6 3 4 4 3 8 10 11 9 12 15 9 3 4 5 6 6 6 4 4 7 8 9
13 11 11 10 9 8 8 7 5 5 4 3 4 4 3 3 3 6 6 7 6 3 3 6 8 8 11 8 11 13 5 2 2 3 6 7 6 7 8 6 6 9 11
13 11 9 10 9 7 5 4 4 4 4 3 4 4 3 2 2 2 3 4 8 7 7 3 7 11 11 9 3 5 1 2 3 4 5 7 6 5 7 6 8 8 9
11 9 8 7 8 7 6 5 5 4 5 5 3 3 4 3 2 6 5 3 3 2 2 3 3 3 3 3 3 3 3 3 4 4 5 6 8 7 7 7 7 8 9
9 7 6 6 6 6 7 6 12 14 15 15 12 7 2 6 8 8 6 8 10 10 4 3 3 3 3 3 4 4 3 4 4 3 3 7 7 8 9 8 7 8 10
7 6 4 6 6 6 5 6 8 10 14 12 12 11 9 6 5 6 9 11 10 6 2 2 2 3 3 4 4 4 6 4 3 4 4 7 7 8 9 8 8 9 10
6 7 4 4 4 4 4 5 5 5 3 2 8 7 6 5 5 6 9 8 5 5 2 2 3 4 4 4 4 4 5 5 4 6 6 6 5 7 9 9 8 10 10
6 5 5 4 4 5 5 5 4 5 4 3 2 2 4 7 7 7 9 3 1 3 3 4 3 4 5 5 5 5 6 7 7 5 7 7 7 5 9 9 9 12 13
6 8 6 5 5 5 4 5 4 4 4 2 1 1 3 4 4 3 2 1 2 4 4 5 4 5 5 5 5 6 7 7 7 6 8 7 8 6 9 9 9 10 10
5 5 6 5 5 5 5 4 4 4 3 2 1 2 3 2 2 3 4 4 4 5 5 5 5 5 5 6 7 7 8 9 9 8 8 8 7 7 8 8 9 10 11
5 5 5 5 4 5 4 4 4 4 3 2 2 3 8 1 3 4 4 5 5 6 5 5 7 7 7 8 8 8 9 11 10 8 8 8 8 8 8 9 9 10 10
5 6 6 4 4 5 4 3 4 3 2 1 2 3 3 3 4 4 5 6 6 7 7 5 8 9 9 8 8 9 10 11 10 7 8 9 9 9 7 9 9 10 10
5 5 6 4 4 4 4 3 2 2 0 2 3 3 3 4 5 6 7 8 8 8 8 7 8 12 11 11 9 9 10 11 9 9 9 10 11 10 8 9 9 11 11
5 5 5 4 4 3 3 2 1 0 2 3 4 3 3 4 5 6 7 7 8 8 10 9 9 12 13 15 15 17 18 19 15 15 10 9 12 13 11 10 11 10 13
6 6 4 4 4 3 3 2 1 2 3 4 4 4 5 5 7 8 8 8 8 9 11 10 11 13 14 13 15 16 17 18 16 17 12 11 10 10 9 10 14 10 12
Wind_Direction
111 114 114 114 112 109 101 107 108 104 107 112 109 110 106 112 100 98 94 101 96 88 78 75 65 61 60 48 40 33 16 12 284 297 308 311 330 334 354 2 2 346 356
117 114 113 115 111 108 104 100 100 104 107 114 108 110 111 104 97 102 106 94 88 83 90 83 63 56 57 51 39 12 347 320 305 313 312 316 326 350 348 0 346 354 343
117 119 119 110 110 108 111 108 112 105 111 106 104 102 103 102 103 93 89 90 88 87 81 78 69 53 49 35 23 7 341 341 333 317 323 347 347 344 338 355 339 330 318
112 116 110 108 108 110 110 109 104 113 109 102 106 108 109 99 89 89 91 91 85 81 82 85 74 57 53 36 17 344 356 344 327 329 342 334 336 327 351 327 323 317 321
109 107 103 102 105 98 99 107 108 106 105 108 108 101 95 92 90 89 90 85 96 99 92 88 96 91 74 10 346 315 319 316 325 338 332 321 313 341 327 326 312 320 324
99 101 101 103 97 106 115 113 109 104 106 110 104 102 86 92 101 93 87 88 86 82 77 71 93 94 64 343 344 335 338 51 3 327 311 312 327 324 321 318 318 324 319
103 97 101 100 110 117 118 110 107 113 114 104 98 101 111 105 99 93 87 92 90 88 69 51 32 57 16 20 336 331 356 336 334 329 327 330 317 315 315 316 311 307 307
96 95 97 106 117 106 100 101 108 108 108 105 104 100 95 108 113 111 114 95 67 69 67 55 32 16 353 340 328 354 340 354 327 330 321 303 297 312 307 307 314 317 302
99 114 118 117 109 111 110 113 115 112 104 99 101 105 100 83 103 97 67 44 59 37 110 112 72 8 337 347 47 339 327 322 317 318 320 321 317 316 313 327 327 327 311
110 104 101 107 108 107 113 112 99 97 97 96 90 78 106 97 72 60 51 39 48 42 9 353 204 226 296 334 11 357 322 303 326 329 330 315 311 298 315 323 317 278 304
101 101 96 99 107 103 95 86 86 90 98 102 100 85 73 67 58 62 43 37 27 11 335 342 54 24 340 332 323 4 290 330 346 331 310 302 296 292 298 297 305 294 286
95 94 90 88 91 90 92 90 95 103 102 100 101 90 71 74 60 40 35 32 358 355 353 44 35 346 325 319 329 315 322 358 328 314 314 306 305 304 300 292 285 273 260
103 100 97 92 93 92 97 96 96 109 108 111 107 106 81 53 37 40 14 358 348 19 47 0 331 327 332 337 315 318 41 357 312 325 301 296 294 301 300 288 275 269 267
105 99 96 95 91 75 73 92 93 85 97 104 90 83 77 69 37 13 17 14 45 40 17 341 316 331 327 328 347 336 312 265 270 272 284 289 301 301 294 294 296 301 297
99 97 96 97 101 98 85 99 84 53 98 98 90 98 95 53 357 12 64 46 61 304 31 344 351 348 340 329 326 319 314 311 302 282 288 304 301 300 295 300 292 299 293
112 117 120 113 105 104 100 88 101 100 91 88 95 103 45 54 20 16 10 344 341 344 40 4 332 328 318 310 312 299 295 295 283 277 283 292 290 297 299 298 296 291 293
108 99 103 116 126 129 121 125 118 87 85 85 71 60 54 36 7 4 350 349 346 28 78 311 292 296 285 286 283 281 288 276 268 280 283 287 291 294 300 298 297 292 292
104 120 123 112 108 112 113 110 109 130 119 35 48 63 37 13 2 4 1 17 5 358 358 279 277 281 283 280 282 275 277 285 277 279 278 276 273 287 291 290 290 288 293
100 91 93 85 84 89 85 82 84 81 87 100 15 49 358 4 359 5 8 120 241 296 286 285 261 268 268 263 263 267 267 278 276 270 277 271 271 258 275 280 282 284 287
87 98 92 100 89 85 86 89 86 88 91 125 113 238 321 29 10 327 331 312 283 267 270 269 270 266 265 262 264 263 270 272 271 261 265 263 263 244 272 278 279 286 284
88 81 91 86 90 93 94 99 103 106 125 112 178 261 322 122 289 281 290 284 265 264 265 262 270 266 267 266 265 266 265 269 266 262 262 264 263 257 264 263 273 277 279
93 97 97 102 96 93 100 106 107 102 104 102 306 322 338 24 278 270 269 269 265 254 249 252 270 270 266 265 264 262 263 266 267 262 262 266 267 261 262 265 272 277 281
106 108 91 85 99 97 87 86 90 99 98 23 293 295 296 272 271 274 276 277 275 281 277 252 266 273 267 261 258 255 262 265 265 258 258 267 268 268 265 267 275 282 283
99 106 112 104 96 94 97 104 115 101 72 287 278 269 268 271 272 274 276 279 279 277 276 271 263 263 273 270 267 260 258 262 265 260 246 259 266 272 267 268 273 275 278
104 100 100 117 118 126 113 93 70 301 261 252 270 271 272 277 280 275 275 275 275 279 281 277 269 271 268 265 264 270 272 277 274 274 270 249 257 262 260 264 268 271 272
105 106 117 114 101 96 99 95 258 261 267 276 272 274 274 279 282 280 282 282 282 282 284 284 280 274 274 276 273 272 275 278 274 257 244 244 249 255 255 257 263 262 267